EZY2760 LXGB-EGGD

Flight info

Callsign EZY2760
Flight time 2h 25m
Altitude 38000
Route PIMOS M985 MGA DCT BLN DCT MORAL DCT BEXID DCT VTB DCT SIE DCT XERMA DCT ARLUN DCT BUGIX DCT UNGAS DCT DELOG DCT NOVAN DCT RUSIB DCT NOZHU DCT SHIRI DCT TOJAQ
Aircraft A20N/M-SDE2E3FGHIRWXY/LB1

Departure

Time 2026-05-06 02:28
Airport Gibraltar Airport (LXGB)

Arrival

Time 2026-05-06 04:53
Airport Bristol Airport (EGGD)
Time Latitude Longitude Altitude Speed Heading
2026-05-06 02:21 36.15230 -5.34636 21 ft 2 kts 84°
2026-05-06 02:22 36.15230 -5.34640 21 ft 0 kts 86°
2026-05-06 02:24 36.15231 -5.34630 17 ft 4 kts 84°
2026-05-06 02:24 36.15232 -5.34575 17 ft 9 kts 89°
2026-05-06 02:24 36.15235 -5.34479 16 ft 12 kts 86°
2026-05-06 02:24 36.15240 -5.34361 14 ft 15 kts 87°
2026-05-06 02:25 36.15243 -5.34264 15 ft 8 kts 92°
2026-05-06 02:25 36.15208 -5.34227 17 ft 6 kts 166°
2026-05-06 02:25 36.15162 -5.34212 19 ft 8 kts 140°
2026-05-06 02:25 36.15155 -5.34130 18 ft 12 kts 70°
2026-05-06 02:26 36.15182 -5.34044 18 ft 9 kts 84°
2026-05-06 02:26 36.15154 -5.34022 18 ft 6 kts 229°
2026-05-06 02:26 36.15151 -5.34045 18 ft 0 kts 267°
2026-05-06 02:27 36.15147 -5.34175 18 ft 55 kts 268°
2026-05-06 02:27 36.15117 -5.35016 25 ft 137 kts 267°
2026-05-06 02:27 36.15078 -5.36319 580 ft 158 kts 268°
2026-05-06 02:28 36.15040 -5.37724 1550 ft 166 kts 269°
2026-05-06 02:28 36.14906 -5.39121 2573 ft 166 kts 256°
2026-05-06 02:28 36.14170 -5.40329 3078 ft 196 kts 209°
2026-05-06 02:28 36.12725 -5.40455 3320 ft 232 kts 160°
2026-05-06 02:29 36.11348 -5.39295 3838 ft 251 kts 128°
2026-05-06 02:29 36.10557 -5.37326 4582 ft 264 kts 99°
2026-05-06 02:29 36.10559 -5.35045 5491 ft 270 kts 80°
2026-05-06 02:29 36.10930 -5.32730 6439 ft 278 kts 77°
2026-05-06 02:30 36.11332 -5.30353 7339 ft 287 kts 78°
2026-05-06 02:30 36.11674 -5.27889 8273 ft 294 kts 81°
2026-05-06 02:30 36.11954 -5.25362 9249 ft 300 kts 82°
2026-05-06 02:30 36.12199 -5.22768 10149 ft 308 kts 83°
2026-05-06 02:31 36.12437 -5.20050 10641 ft 330 kts 83°
2026-05-06 02:31 36.12683 -5.17164 11020 ft 353 kts 84°
2026-05-06 02:31 36.12945 -5.14092 11734 ft 362 kts 84°
2026-05-06 02:31 36.13210 -5.10967 12635 ft 367 kts 84°
2026-05-06 02:32 36.13480 -5.07806 13517 ft 372 kts 84°
2026-05-06 02:32 36.13753 -5.04607 14317 ft 376 kts 84°
2026-05-06 02:32 36.14028 -5.01366 15096 ft 381 kts 84°
2026-05-06 02:32 36.14306 -4.98085 15855 ft 386 kts 84°
2026-05-06 02:33 36.14587 -4.94761 16623 ft 390 kts 84°
2026-05-06 02:33 36.14877 -4.92554 17106 ft 393 kts 74°
2026-05-06 02:33 36.18482 -4.86174 18727 ft 396 kts 33°
2026-05-06 02:34 36.20816 -4.84337 19334 ft 399 kts 27°
2026-05-06 02:34 36.23208 -4.82651 19946 ft 404 kts 26°
2026-05-06 02:34 36.25656 -4.80903 20565 ft 409 kts 27°
2026-05-06 02:34 36.28112 -4.79078 21176 ft 414 kts 27°
2026-05-06 02:35 36.30576 -4.77191 21771 ft 419 kts 28°
2026-05-06 02:35 36.33061 -4.75253 22382 ft 424 kts 28°
2026-05-06 02:35 36.35567 -4.73283 22960 ft 429 kts 28°
2026-05-06 02:35 36.38105 -4.71283 23533 ft 434 kts 28°
2026-05-06 02:36 36.40667 -4.69263 24041 ft 438 kts 28°
2026-05-06 02:36 36.43242 -4.67233 24569 ft 441 kts 28°
2026-05-06 02:36 36.45844 -4.65181 25056 ft 444 kts 28°
2026-05-06 02:36 36.48468 -4.63111 25553 ft 448 kts 28°
2026-05-06 02:37 36.51104 -4.61030 26046 ft 451 kts 28°
2026-05-06 02:37 36.53760 -4.58931 26521 ft 454 kts 28°
2026-05-06 02:37 36.56437 -4.56815 26971 ft 458 kts 28°
2026-05-06 02:37 36.59138 -4.54677 27413 ft 461 kts 28°
2026-05-06 02:38 36.61857 -4.52524 27858 ft 464 kts 28°
2026-05-06 02:38 36.64591 -4.50357 28266 ft 468 kts 28°
2026-05-06 02:38 36.67344 -4.48172 28684 ft 470 kts 28°
2026-05-06 02:38 36.70115 -4.45972 29077 ft 474 kts 28°
2026-05-06 02:39 36.72864 -4.43787 29449 ft 477 kts 28°
2026-05-06 02:39 36.75673 -4.41553 29840 ft 480 kts 28°
2026-05-06 02:39 36.78501 -4.39301 30218 ft 482 kts 28°
2026-05-06 02:39 36.81369 -4.37115 30572 ft 482 kts 23°
2026-05-06 02:40 36.84394 -4.35337 30912 ft 481 kts 18°
2026-05-06 02:40 36.87468 -4.33670 31345 ft 481 kts 18°
2026-05-06 02:40 36.90545 -4.31987 31748 ft 482 kts 18°
2026-05-06 02:40 36.93616 -4.30303 32162 ft 482 kts 18°
2026-05-06 02:41 36.96686 -4.28618 32608 ft 482 kts 18°
2026-05-06 02:41 36.99716 -4.26954 33050 ft 481 kts 18°
2026-05-06 02:41 37.02782 -4.25270 33477 ft 481 kts 18°
2026-05-06 02:41 37.05839 -4.23589 33902 ft 480 kts 18°
2026-05-06 02:42 37.08899 -4.21906 34262 ft 480 kts 18°
2026-05-06 02:42 37.11962 -4.20221 34632 ft 480 kts 18°
2026-05-06 02:42 37.15014 -4.18539 34994 ft 479 kts 18°
2026-05-06 02:42 37.18067 -4.16856 35328 ft 478 kts 18°
2026-05-06 02:43 37.21112 -4.15176 35649 ft 478 kts 18°
2026-05-06 02:43 37.24157 -4.13495 35966 ft 478 kts 18°
2026-05-06 02:43 37.27199 -4.11813 36263 ft 477 kts 18°
2026-05-06 02:43 37.30235 -4.10133 36550 ft 476 kts 18°
2026-05-06 02:44 37.33276 -4.08449 36835 ft 476 kts 18°
2026-05-06 02:44 37.36271 -4.06789 37078 ft 476 kts 18°
2026-05-06 02:44 37.39299 -4.05109 37355 ft 476 kts 18°
2026-05-06 02:44 37.42325 -4.03428 37631 ft 475 kts 18°
2026-05-06 02:45 37.45356 -4.01744 37887 ft 475 kts 18°
2026-05-06 02:45 37.51397 -3.98382 37977 ft 473 kts 18°
2026-05-06 02:46 37.57423 -3.95024 37979 ft 474 kts 18°
2026-05-06 02:46 37.63451 -3.91658 37976 ft 474 kts 18°
2026-05-06 02:47 37.69475 -3.88288 37971 ft 474 kts 18°
2026-05-06 02:47 37.75501 -3.84910 37972 ft 474 kts 18°
2026-05-06 02:48 37.81523 -3.81529 37965 ft 473 kts 18°
2026-05-06 02:48 37.87546 -3.78142 37962 ft 473 kts 18°
2026-05-06 02:49 37.93527 -3.74772 37963 ft 473 kts 18°
2026-05-06 02:49 37.99549 -3.71372 37966 ft 473 kts 18°
2026-05-06 02:50 38.05562 -3.67972 37954 ft 473 kts 18°
2026-05-06 02:50 38.11593 -3.64641 37962 ft 470 kts 14°
2026-05-06 02:51 38.17834 -3.62480 37965 ft 461 kts
2026-05-06 02:51 38.24166 -3.61646 37963 ft 456 kts 358°
2026-05-06 02:52 38.30494 -3.61019 37964 ft 457 kts 358°
2026-05-06 02:52 38.36839 -3.60392 37977 ft 457 kts 358°
2026-05-06 02:53 38.43178 -3.59775 37978 ft 457 kts 358°
2026-05-06 02:53 38.49490 -3.59162 37975 ft 457 kts 358°
2026-05-06 02:54 38.55837 -3.58545 37974 ft 457 kts 358°
2026-05-06 02:54 38.62178 -3.57928 37971 ft 457 kts 358°
2026-05-06 02:55 38.68523 -3.57309 37970 ft 457 kts 358°
2026-05-06 02:55 38.74867 -3.56688 37974 ft 457 kts 358°
2026-05-06 02:56 38.81209 -3.56066 37974 ft 457 kts 358°
2026-05-06 02:56 38.87514 -3.55447 37961 ft 457 kts 358°
2026-05-06 02:57 38.93867 -3.54823 37969 ft 457 kts 358°
2026-05-06 02:57 39.00208 -3.54199 37967 ft 457 kts 358°
2026-05-06 02:58 39.06553 -3.53569 37965 ft 457 kts 358°
2026-05-06 02:58 39.12898 -3.52937 37984 ft 457 kts 358°
2026-05-06 02:59 39.19235 -3.52306 37974 ft 457 kts 358°
2026-05-06 02:59 39.24505 -3.51780 37971 ft 457 kts 358°
2026-05-06 03:00 39.30834 -3.51147 37972 ft 456 kts 358°
2026-05-06 03:00 39.37164 -3.50513 37972 ft 456 kts 358°
2026-05-06 03:01 39.43497 -3.49878 37972 ft 456 kts 358°
2026-05-06 03:01 39.49827 -3.49242 37969 ft 456 kts 358°
2026-05-06 03:02 39.56152 -3.48605 37967 ft 456 kts 358°
2026-05-06 03:02 39.62485 -3.47968 37968 ft 456 kts 358°
2026-05-06 03:03 39.68818 -3.47335 37968 ft 457 kts 358°
2026-05-06 03:03 39.75157 -3.46699 37969 ft 457 kts 358°
2026-05-06 03:04 39.81415 -3.46746 37973 ft 449 kts 348°
2026-05-06 03:04 39.87658 -3.47390 37971 ft 450 kts 349°
2026-05-06 03:05 39.93913 -3.48005 37971 ft 451 kts 349°
2026-05-06 03:05 40.00166 -3.48632 37978 ft 451 kts 349°
2026-05-06 03:06 40.06427 -3.49266 37983 ft 451 kts 349°
2026-05-06 03:06 40.12648 -3.49897 37986 ft 451 kts 349°
2026-05-06 03:07 40.18914 -3.50534 37993 ft 451 kts 349°
2026-05-06 03:07 40.25181 -3.51173 37996 ft 451 kts 349°
2026-05-06 03:08 40.31449 -3.51812 37998 ft 451 kts 349°
2026-05-06 03:08 40.37725 -3.52453 38001 ft 451 kts 349°
2026-05-06 03:09 40.43985 -3.53094 38002 ft 451 kts 349°
2026-05-06 03:09 40.50194 -3.53731 38003 ft 450 kts 349°
2026-05-06 03:10 40.56439 -3.54373 38004 ft 450 kts 350°
2026-05-06 03:10 40.62682 -3.55016 38001 ft 450 kts 350°
2026-05-06 03:11 40.68919 -3.55659 38002 ft 449 kts 350°
2026-05-06 03:11 40.75143 -3.56302 37998 ft 448 kts 350°
2026-05-06 03:12 40.81365 -3.56945 37997 ft 448 kts 350°
2026-05-06 03:12 40.87577 -3.57591 37995 ft 447 kts 350°
2026-05-06 03:13 40.93786 -3.58236 37997 ft 447 kts 350°
2026-05-06 03:13 40.99998 -3.58884 37998 ft 447 kts 350°
2026-05-06 03:14 41.06165 -3.59527 38003 ft 447 kts 350°
2026-05-06 03:14 41.12364 -3.60175 38001 ft 447 kts 350°
2026-05-06 03:15 41.18601 -3.60553 38003 ft 450 kts 354°
2026-05-06 03:15 41.24865 -3.60708 38007 ft 450 kts 354°
2026-05-06 03:16 41.31131 -3.60873 38014 ft 451 kts 354°
2026-05-06 03:16 41.37411 -3.61034 38018 ft 451 kts 354°
2026-05-06 03:17 41.43694 -3.61194 38025 ft 451 kts 354°
2026-05-06 03:17 41.49976 -3.61354 38027 ft 451 kts 354°
2026-05-06 03:18 41.56256 -3.61406 38033 ft 452 kts 355°
2026-05-06 03:18 41.62514 -3.61376 38037 ft 452 kts 355°
2026-05-06 03:19 41.68809 -3.61364 38038 ft 452 kts 355°
2026-05-06 03:19 41.75093 -3.61363 38037 ft 451 kts 355°
2026-05-06 03:20 41.84503 -3.61363 38047 ft 450 kts 355°
2026-05-06 03:20 41.90766 -3.61363 38031 ft 450 kts 355°
2026-05-06 03:21 41.96986 -3.61363 38034 ft 449 kts 355°
2026-05-06 03:21 42.03237 -3.61368 38031 ft 448 kts 354°
2026-05-06 03:22 42.09457 -3.61741 38023 ft 446 kts 352°
2026-05-06 03:22 42.15659 -3.62209 38020 ft 446 kts 352°
2026-05-06 03:23 42.21866 -3.62629 38014 ft 446 kts 353°
2026-05-06 03:23 42.28075 -3.63031 38007 ft 447 kts 353°
2026-05-06 03:24 42.34286 -3.63433 38010 ft 447 kts 352°
2026-05-06 03:24 42.40420 -3.64462 38012 ft 444 kts 347°
2026-05-06 03:25 42.46536 -3.65671 38012 ft 444 kts 347°
2026-05-06 03:25 42.52649 -3.66876 38022 ft 444 kts 347°
2026-05-06 03:26 42.58769 -3.68094 38031 ft 444 kts 347°
2026-05-06 03:26 42.64891 -3.69317 38042 ft 445 kts 347°
2026-05-06 03:27 42.71028 -3.70513 38055 ft 446 kts 349°
2026-05-06 03:27 42.77196 -3.71542 38054 ft 446 kts 349°
2026-05-06 03:28 42.83325 -3.72563 38058 ft 447 kts 349°
2026-05-06 03:28 42.89499 -3.73613 38054 ft 447 kts 349°
2026-05-06 03:29 42.95667 -3.74670 38054 ft 447 kts 349°
2026-05-06 03:29 43.01836 -3.75729 38047 ft 446 kts 349°
2026-05-06 03:30 43.08007 -3.76791 38036 ft 446 kts 349°
2026-05-06 03:30 43.14170 -3.77854 38034 ft 447 kts 349°
2026-05-06 03:31 43.20342 -3.78921 38030 ft 447 kts 349°
2026-05-06 03:31 43.26511 -3.79989 38027 ft 447 kts 349°
2026-05-06 03:32 43.32644 -3.81052 38026 ft 446 kts 350°
2026-05-06 03:32 43.38834 -3.82127 38026 ft 446 kts 350°
2026-05-06 03:33 43.44956 -3.83193 38024 ft 446 kts 350°
2026-05-06 03:33 43.51107 -3.84267 38023 ft 445 kts 350°
2026-05-06 03:34 43.57254 -3.85342 38019 ft 445 kts 350°
2026-05-06 03:34 43.63394 -3.86417 38014 ft 444 kts 350°
2026-05-06 03:35 43.69527 -3.87494 38003 ft 443 kts 350°
2026-05-06 03:35 43.75649 -3.88571 37995 ft 443 kts 350°
2026-05-06 03:36 43.81762 -3.89649 37982 ft 442 kts 350°
2026-05-06 03:36 43.87871 -3.90729 37981 ft 442 kts 350°
2026-05-06 03:37 43.93971 -3.91809 37974 ft 442 kts 350°
2026-05-06 03:37 44.00040 -3.92886 37965 ft 442 kts 350°
2026-05-06 03:38 44.06160 -3.93974 37965 ft 442 kts 350°
2026-05-06 03:38 44.12279 -3.95064 37962 ft 443 kts 350°
2026-05-06 03:39 44.18398 -3.96157 37964 ft 443 kts 350°
2026-05-06 03:39 44.24486 -3.97246 37967 ft 444 kts 350°
2026-05-06 03:40 44.30621 -3.98281 37971 ft 445 kts 354°
2026-05-06 03:40 44.36840 -3.98177 37970 ft 448 kts
2026-05-06 03:41 44.43061 -3.97297 37972 ft 449 kts
2026-05-06 03:41 44.49254 -3.96456 37972 ft 449 kts
2026-05-06 03:42 44.55484 -3.95588 37974 ft 449 kts
2026-05-06 03:42 44.61713 -3.94710 37971 ft 449 kts
2026-05-06 03:43 44.67871 -3.93841 37958 ft 447 kts
2026-05-06 03:43 44.74065 -3.92963 37958 ft 446 kts
2026-05-06 03:44 44.80251 -3.92086 37949 ft 447 kts
2026-05-06 03:44 44.86441 -3.91208 37953 ft 447 kts
2026-05-06 03:45 44.92632 -3.90326 37947 ft 446 kts
2026-05-06 03:45 44.98810 -3.89444 37944 ft 446 kts
2026-05-06 03:46 45.04994 -3.88559 37957 ft 446 kts
2026-05-06 03:46 45.11131 -3.87679 37943 ft 446 kts
2026-05-06 03:47 45.17310 -3.86792 37939 ft 446 kts
2026-05-06 03:47 45.23485 -3.85902 37957 ft 445 kts
2026-05-06 03:48 45.28608 -3.85164 37955 ft 445 kts
2026-05-06 03:48 45.34771 -3.84273 37959 ft 444 kts
2026-05-06 03:49 45.40929 -3.83381 37957 ft 444 kts
2026-05-06 03:49 45.47070 -3.82489 37954 ft 444 kts
2026-05-06 03:50 45.53219 -3.81595 37955 ft 444 kts
2026-05-06 03:50 45.59324 -3.80704 37948 ft 444 kts
2026-05-06 03:51 45.65455 -3.79807 37947 ft 441 kts
2026-05-06 03:51 45.71576 -3.78912 37949 ft 442 kts
2026-05-06 03:52 45.77689 -3.78015 37947 ft 441 kts
2026-05-06 03:52 45.83803 -3.77115 37939 ft 441 kts
2026-05-06 03:53 45.89910 -3.76215 37947 ft 441 kts
2026-05-06 03:53 45.96028 -3.75312 37957 ft 442 kts
2026-05-06 03:54 46.02152 -3.74404 37961 ft 442 kts
2026-05-06 03:54 46.08217 -3.73504 37948 ft 439 kts
2026-05-06 03:55 46.14309 -3.72598 37941 ft 440 kts
2026-05-06 03:55 46.20398 -3.71690 37947 ft 440 kts
2026-05-06 03:56 46.26482 -3.70781 37949 ft 439 kts
2026-05-06 03:56 46.32568 -3.70010 37947 ft 439 kts
2026-05-06 03:57 46.38646 -3.70202 37946 ft 439 kts 358°
2026-05-06 03:57 46.44766 -3.70424 37962 ft 440 kts 358°
2026-05-06 03:58 46.50871 -3.70653 37943 ft 437 kts 358°
2026-05-06 03:58 46.56969 -3.70893 37948 ft 438 kts 358°
2026-05-06 03:59 46.63022 -3.71133 37947 ft 437 kts 358°
2026-05-06 03:59 46.69108 -3.71374 37947 ft 437 kts 358°
2026-05-06 04:00 46.75192 -3.71615 37948 ft 437 kts 358°
2026-05-06 04:00 46.81283 -3.71859 37954 ft 438 kts 358°
2026-05-06 04:01 46.87379 -3.72102 37953 ft 438 kts 358°
2026-05-06 04:01 46.93487 -3.72346 37960 ft 439 kts 358°
2026-05-06 04:02 46.99589 -3.72591 37952 ft 439 kts 358°
2026-05-06 04:02 47.05638 -3.72834 37953 ft 437 kts 358°
2026-05-06 04:03 47.11719 -3.73079 37957 ft 438 kts 358°
2026-05-06 04:03 47.17807 -3.73326 37952 ft 438 kts 358°
2026-05-06 04:04 47.23911 -3.73573 37955 ft 438 kts 358°
2026-05-06 04:04 47.30015 -3.73821 37956 ft 439 kts 358°
2026-05-06 04:05 47.36142 -3.74070 37961 ft 441 kts 358°
2026-05-06 04:05 47.42281 -3.74320 37965 ft 442 kts 358°
2026-05-06 04:06 47.48435 -3.74572 37966 ft 442 kts 358°
2026-05-06 04:06 47.54557 -3.74822 37970 ft 443 kts 358°
2026-05-06 04:07 47.60730 -3.75076 37960 ft 443 kts 358°
2026-05-06 04:07 47.66883 -3.75329 37952 ft 442 kts 358°
2026-05-06 04:08 47.73031 -3.75583 37950 ft 442 kts 358°
2026-05-06 04:08 47.79191 -3.75837 37955 ft 442 kts 358°
2026-05-06 04:09 47.85343 -3.76092 37954 ft 443 kts 358°
2026-05-06 04:09 47.91507 -3.76349 37963 ft 444 kts 358°
2026-05-06 04:10 47.97648 -3.76605 37974 ft 444 kts 358°
2026-05-06 04:10 48.03833 -3.76863 37970 ft 445 kts 358°
2026-05-06 04:11 48.10035 -3.77122 37970 ft 446 kts 358°
2026-05-06 04:11 48.16244 -3.77383 37964 ft 446 kts 358°
2026-05-06 04:12 48.22458 -3.77644 37972 ft 447 kts 358°
2026-05-06 04:12 48.28671 -3.77906 37981 ft 447 kts 358°
2026-05-06 04:13 48.34891 -3.78169 37973 ft 447 kts 358°
2026-05-06 04:13 48.41111 -3.78433 37975 ft 447 kts 358°
2026-05-06 04:14 48.47330 -3.78697 37970 ft 447 kts 358°
2026-05-06 04:14 48.53557 -3.78962 37966 ft 447 kts 358°
2026-05-06 04:15 48.59735 -3.79225 37964 ft 447 kts 358°
2026-05-06 04:15 48.65958 -3.79492 37971 ft 447 kts 358°
2026-05-06 04:16 48.72178 -3.79759 37967 ft 446 kts 358°
2026-05-06 04:16 48.78389 -3.80025 37957 ft 446 kts 358°
2026-05-06 04:17 48.84602 -3.80293 37959 ft 446 kts 358°
2026-05-06 04:17 48.90761 -3.80559 37957 ft 445 kts 358°
2026-05-06 04:18 48.96952 -3.80825 37953 ft 445 kts 358°
2026-05-06 04:18 49.03143 -3.80511 37964 ft 445 kts
2026-05-06 04:19 49.09330 -3.80146 37957 ft 445 kts
2026-05-06 04:19 49.15519 -3.79778 37960 ft 445 kts
2026-05-06 04:20 49.21701 -3.79402 37956 ft 444 kts
2026-05-06 04:20 49.27886 -3.79024 37951 ft 444 kts
2026-05-06 04:21 49.34065 -3.78645 37953 ft 445 kts
2026-05-06 04:21 49.40248 -3.78266 37955 ft 445 kts
2026-05-06 04:22 49.46439 -3.77885 37948 ft 445 kts
2026-05-06 04:23 49.55688 -3.77313 37956 ft 446 kts
2026-05-06 04:23 49.61890 -3.76929 37958 ft 446 kts
2026-05-06 04:24 49.68084 -3.76543 37966 ft 447 kts
2026-05-06 04:24 49.74292 -3.75991 37972 ft 447 kts
2026-05-06 04:25 49.80507 -3.75193 37718 ft 447 kts
2026-05-06 04:25 49.83598 -3.74807 37447 ft 445 kts
2026-05-06 04:25 49.86680 -3.74433 37174 ft 444 kts
2026-05-06 04:25 49.89758 -3.74065 36624 ft 445 kts
2026-05-06 04:26 49.92856 -3.73699 35892 ft 447 kts
2026-05-06 04:26 49.95969 -3.73331 35042 ft 450 kts
2026-05-06 04:26 49.99099 -3.72960 34209 ft 452 kts
2026-05-06 04:26 50.02233 -3.72588 33320 ft 451 kts
2026-05-06 04:27 50.05377 -3.72213 32253 ft 455 kts
2026-05-06 04:27 50.08547 -3.71834 31317 ft 457 kts
2026-05-06 04:27 50.11657 -3.71462 30695 ft 451 kts
2026-05-06 04:27 50.14806 -3.71084 30116 ft 445 kts
2026-05-06 04:28 50.17838 -3.70721 29487 ft 440 kts
2026-05-06 04:28 50.20874 -3.70357 28887 ft 433 kts
2026-05-06 04:28 50.23860 -3.69998 28291 ft 428 kts
2026-05-06 04:28 50.26818 -3.69643 27687 ft 422 kts
2026-05-06 04:29 50.29737 -3.69291 27115 ft 418 kts
2026-05-06 04:29 50.32618 -3.68944 26536 ft 413 kts
2026-05-06 04:29 50.35474 -3.68600 25964 ft 409 kts
2026-05-06 04:29 50.38307 -3.68258 25388 ft 406 kts
2026-05-06 04:30 50.41110 -3.67919 24814 ft 403 kts
2026-05-06 04:30 50.43895 -3.67516 24243 ft 400 kts
2026-05-06 04:30 50.46650 -3.66987 23651 ft 398 kts
2026-05-06 04:30 50.49389 -3.66427 23046 ft 395 kts
2026-05-06 04:31 50.52058 -3.65886 22487 ft 390 kts
2026-05-06 04:31 50.54732 -3.65358 21921 ft 386 kts
2026-05-06 04:31 50.57380 -3.64845 21365 ft 381 kts
2026-05-06 04:31 50.60003 -3.64342 20804 ft 378 kts
2026-05-06 04:32 50.62601 -3.63846 20254 ft 375 kts
2026-05-06 04:32 50.65190 -3.63352 19698 ft 372 kts
2026-05-06 04:32 50.67753 -3.62863 19146 ft 370 kts
2026-05-06 04:32 50.70300 -3.62375 18596 ft 367 kts
2026-05-06 04:33 50.72829 -3.61891 18009 ft 366 kts
2026-05-06 04:33 50.75342 -3.61409 17450 ft 362 kts
2026-05-06 04:33 50.77831 -3.60932 16896 ft 358 kts
2026-05-06 04:33 50.80300 -3.60458 16357 ft 355 kts
2026-05-06 04:34 50.82741 -3.59988 15817 ft 352 kts
2026-05-06 04:34 50.85162 -3.59522 15342 ft 347 kts
2026-05-06 04:34 50.87512 -3.59068 15196 ft 333 kts
2026-05-06 04:34 50.89767 -3.58632 15067 ft 320 kts
2026-05-06 04:35 50.91944 -3.58182 14776 ft 313 kts 11°
2026-05-06 04:35 50.93929 -3.57021 14524 ft 306 kts 30°
2026-05-06 04:35 50.95579 -3.54920 14282 ft 307 kts 46°
2026-05-06 04:35 50.97053 -3.52458 13965 ft 308 kts 46°
2026-05-06 04:36 50.98532 -3.50000 13568 ft 307 kts 46°
2026-05-06 04:36 51.00003 -3.47559 13167 ft 304 kts 45°
2026-05-06 04:36 51.01454 -3.45152 12785 ft 300 kts 45°
2026-05-06 04:36 51.02890 -3.42767 12410 ft 296 kts 45°
2026-05-06 04:37 51.03831 -3.41205 12166 ft 294 kts 45°
2026-05-06 04:37 51.05898 -3.38537 11843 ft 282 kts 24°
2026-05-06 04:37 51.07111 -3.37868 11679 ft 279 kts 11°
2026-05-06 04:37 51.09039 -3.37490 11353 ft 278 kts
2026-05-06 04:38 51.10958 -3.37173 11019 ft 276 kts
2026-05-06 04:38 51.12859 -3.36850 10667 ft 274 kts
2026-05-06 04:38 51.14749 -3.36523 10333 ft 272 kts
2026-05-06 04:38 51.16607 -3.36030 9980 ft 270 kts 19°
2026-05-06 04:39 51.18177 -3.34436 9625 ft 270 kts 46°
2026-05-06 04:39 51.19175 -3.31924 9286 ft 268 kts 62°
2026-05-06 04:39 51.20006 -3.29287 8940 ft 265 kts 62°
2026-05-06 04:39 51.20822 -3.26695 8593 ft 263 kts 62°
2026-05-06 04:40 51.21642 -3.24099 8263 ft 260 kts 62°
2026-05-06 04:40 51.22457 -3.21528 7919 ft 259 kts 62°
2026-05-06 04:40 51.23270 -3.18974 7577 ft 257 kts 61°
2026-05-06 04:40 51.24077 -3.16438 7253 ft 255 kts 61°
2026-05-06 04:41 51.24875 -3.13925 6914 ft 253 kts 61°
2026-05-06 04:41 51.25670 -3.11422 6584 ft 252 kts 61°
2026-05-06 04:41 51.26461 -3.08931 6237 ft 251 kts 61°
2026-05-06 04:41 51.27245 -3.06461 5899 ft 248 kts 61°
2026-05-06 04:42 51.28022 -3.04009 5560 ft 247 kts 61°
2026-05-06 04:42 51.28792 -3.01572 5260 ft 245 kts 61°
2026-05-06 04:42 51.29555 -2.99153 4960 ft 243 kts 61°
2026-05-06 04:42 51.30311 -2.96753 4641 ft 241 kts 61°
2026-05-06 04:43 51.31061 -2.94370 4304 ft 240 kts 61°
2026-05-06 04:43 51.31799 -2.92027 4113 ft 229 kts 62°
2026-05-06 04:43 51.32491 -2.89821 3996 ft 214 kts 62°
2026-05-06 04:43 51.33141 -2.87744 3899 ft 205 kts 62°
2026-05-06 04:44 51.33777 -2.85720 3699 ft 203 kts 61°
2026-05-06 04:44 51.34410 -2.83704 3484 ft 202 kts 62°
2026-05-06 04:44 51.35028 -2.81733 3276 ft 200 kts 62°
2026-05-06 04:44 51.35651 -2.79745 3066 ft 198 kts 62°
2026-05-06 04:45 51.36480 -2.78045 2963 ft 198 kts 32°
2026-05-06 04:45 51.37784 -2.77452 2860 ft 199 kts 356°
2026-05-06 04:45 51.39058 -2.78257 2796 ft 202 kts 320°
2026-05-06 04:45 51.39800 -2.80174 2811 ft 209 kts 289°
2026-05-06 04:46 51.40071 -2.82459 2752 ft 208 kts 278°
2026-05-06 04:46 51.40230 -2.84767 2566 ft 207 kts 278°
2026-05-06 04:46 51.40425 -2.87071 2499 ft 209 kts 281°
2026-05-06 04:46 51.40680 -2.89366 2501 ft 209 kts 283°
2026-05-06 04:47 51.40977 -2.91650 2502 ft 209 kts 284°
2026-05-06 04:47 51.41294 -2.93911 2501 ft 208 kts 285°
2026-05-06 04:47 51.41450 -2.96151 2496 ft 198 kts 261°
2026-05-06 04:47 51.40829 -2.98028 2518 ft 196 kts 221°
2026-05-06 04:48 51.39610 -2.98900 2508 ft 193 kts 180°
2026-05-06 04:48 51.38343 -2.98372 2505 ft 189 kts 140°
2026-05-06 04:48 51.37581 -2.96739 2504 ft 184 kts 105°
2026-05-06 04:48 51.37409 -2.94742 2502 ft 181 kts 86°
2026-05-06 04:49 51.37471 -2.92800 2499 ft 176 kts 83°
2026-05-06 04:49 51.37543 -2.90944 2497 ft 153 kts 83°
2026-05-06 04:49 51.37602 -2.89369 2492 ft 135 kts 83°
2026-05-06 04:49 51.37661 -2.87834 2443 ft 138 kts 83°
2026-05-06 04:50 51.37716 -2.86325 2274 ft 135 kts 83°
2026-05-06 04:50 51.37771 -2.84868 2106 ft 125 kts 83°
2026-05-06 04:50 51.37822 -2.83526 1938 ft 120 kts 82°
2026-05-06 04:50 51.37872 -2.82180 1774 ft 120 kts 82°
2026-05-06 04:51 51.37924 -2.80859 1608 ft 119 kts 82°
2026-05-06 04:51 51.37974 -2.79543 1444 ft 119 kts 83°
2026-05-06 04:51 51.38025 -2.78200 1268 ft 121 kts 83°
2026-05-06 04:51 51.38075 -2.76873 1101 ft 119 kts 83°
2026-05-06 04:52 51.38126 -2.75568 940 ft 119 kts 83°
2026-05-06 04:52 51.38177 -2.74272 762 ft 116 kts 85°
2026-05-06 04:52 51.38229 -2.72971 630 ft 115 kts 88°
2026-05-06 04:52 51.38270 -2.71864 622 ft 68 kts 88°
2026-05-06 04:53 51.38287 -2.71405 613 ft 33 kts 86°
2026-05-06 04:53 51.38302 -2.71023 609 ft 34 kts 87°
2026-05-06 04:53 51.38324 -2.70781 615 ft 19 kts 43°
2026-05-06 04:53 51.38435 -2.70712 610 ft 14 kts
2026-05-06 04:54 51.38468 -2.70802 619 ft 11 kts 277°
2026-05-06 04:54 51.38463 -2.70948 611 ft 15 kts 261°
2026-05-06 04:54 51.38459 -2.71020 611 ft 3 kts 266°
2026-05-06 04:54 51.38487 -2.71072 617 ft 11 kts 336°
2026-05-06 04:55 51.38551 -2.71082 612 ft 4 kts 357°
2026-05-06 04:55 51.38555 -2.71082 612 ft 0 kts 358°